When you browse on this site, cookies collect data to enhance your experience and personalize the content and advertising you see.
Visit our Privacy Policy to learn more. By continuing to use the site, you agree to this use of cookies and data.
  • In Hungary
  • List of Countries
  • For 7 days
  • Water Temperature
  • Satellite Maps
  • Weather Map
  • News
  • Weather Widgets
  • user-avatar
    Login

    Hourly Weather Kanchipuram

    Today, 22 July, Monday

    Time Temperature Precipitation Wind Pressure Humidity
    00:00 +31°C° 0.3 mm 2 mps 745 mmHg 72%
    01:00 +31°C° 0.3 mm 2 mps 745 mmHg 71%
    02:00 +31°C° 0.3 mm 2 mps 744 mmHg 70%
    03:00 +30°C° 0.2 mm 2 mps 744 mmHg 71%
    04:00 +30°C° 0.2 mm 3 mps 744 mmHg 71%
    05:00 +29°C° 0 mm 1 mps 744 mmHg 78%
    06:00 +29°C° 0.5 mm 2 mps 745 mmHg 76%
    07:00 +29°C° 0.5 mm 4 mps 745 mmHg 75%
    08:00 +30°C° 0.5 mm 5 mps 746 mmHg 74%
    09:00 +29°C° 0.9 mm 5 mps 746 mmHg 76%
    10:00 +28°C° 0.9 mm 4 mps 746 mmHg 79%
    11:00 +29°C° 0 mm 3 mps 746 mmHg 78%
    12:00 +28°C° 3.8 mm 3 mps 746 mmHg 82%
    13:00 +27°C° 3.8 mm 4 mps 745 mmHg 87%
    14:00 +27°C° 3.8 mm 4 mps 745 mmHg 91%
    15:00 +27°C° 1.3 mm 4 mps 745 mmHg 90%
    16:00 +27°C° 1.3 mm 5 mps 745 mmHg 88%
    17:00 +27°C° 1.3 mm 5 mps 744 mmHg 87%
    18:00 +27°C° 0.1 mm 4 mps 745 mmHg 87%
    19:00 +27°C° 0.1 mm 4 mps 745 mmHg 87%
    20:00 +27°C° 0.1 mm 3 mps 746 mmHg 87%
    21:00 +27°C° 0 mm 3 mps 746 mmHg 87%
    22:00 +27°C° 0 mm 3 mps 746 mmHg 87%
    23:00 +27°C° 0 mm 3 mps 746 mmHg 87%

    Tomorrow, 23 July, Tuesday

    Time Temperature Precipitation Wind Pressure Humidity
    00:00 +27°C° 0 mm 3 mps 745 mmHg 86%
    01:00 +27°C° 0 mm 3 mps 745 mmHg 84%
    02:00 +27°C° 0 mm 3 mps 745 mmHg 83%
    03:00 +27°C° 0.5 mm 3 mps 745 mmHg 83%
    04:00 +27°C° 0.5 mm 3 mps 744 mmHg 84%
    05:00 +26°C° 0.5 mm 3 mps 744 mmHg 84%
    06:00 +27°C° 0.3 mm 3 mps 745 mmHg 81%
    07:00 +27°C° 0.3 mm 3 mps 745 mmHg 78%
    08:00 +27°C° 0.3 mm 3 mps 746 mmHg 75%
    09:00 +28°C° 0 mm 3 mps 746 mmHg 73%
    10:00 +28°C° 0 mm 3 mps 746 mmHg 71%
    11:00 +29°C° 0 mm 3 mps 746 mmHg 69%
    12:00 +29°C° 0 mm 3 mps 746 mmHg 68%
    13:00 +29°C° 0 mm 4 mps 746 mmHg 67%
    14:00 +30°C° 0 mm 4 mps 745 mmHg 65%
    15:00 +30°C° 0 mm 3 mps 745 mmHg 64%
    16:00 +31°C° 0 mm 2 mps 745 mmHg 63%
    17:00 +31°C° 0 mm 2 mps 745 mmHg 62%
    18:00 +31°C° 0.3 mm 2 mps 745 mmHg 66%
    19:00 +30°C° 0.3 mm 2 mps 746 mmHg 71%
    20:00 +29°C° 0.3 mm 2 mps 746 mmHg 75%
    21:00 +29°C° 0.1 mm 2 mps 746 mmHg 76%
    22:00 +29°C° 0.1 mm 2 mps 746 mmHg 76%
    23:00 +29°C° 0.1 mm 2 mps 746 mmHg 76%

    Day after tomorrow, 24 July, Wednesday

    Time Temperature Precipitation Wind Pressure Humidity
    00:00 +28°C° 0 mm 2 mps 746 mmHg 77%
    01:00 +28°C° 0 mm 2 mps 746 mmHg 77%
    02:00 +28°C° 0 mm 3 mps 745 mmHg 78%
    03:00 +28°C° 0 mm 3 mps 745 mmHg 78%
    04:00 +28°C° 0 mm 2 mps 745 mmHg 78%
    05:00 +27°C° 0 mm 2 mps 745 mmHg 79%
    06:00 +28°C° 0 mm 3 mps 746 mmHg 74%
    07:00 +29°C° 0 mm 4 mps 746 mmHg 69%
    08:00 +30°C° 0 mm 5 mps 747 mmHg 65%
    09:00 +32°C° 0 mm 5 mps 747 mmHg 60%
    10:00 +34°C° 0 mm 5 mps 747 mmHg 56%
    11:00 +35°C° 0 mm 5 mps 747 mmHg 51%
    12:00 +36°C° 0 mm 5 mps 746 mmHg 49%
    13:00 +37°C° 0 mm 5 mps 745 mmHg 47%
    14:00 +37°C° 0 mm 5 mps 745 mmHg 44%
    15:00 +37°C° 0 mm 4 mps 744 mmHg 46%
    16:00 +37°C° 0 mm 4 mps 744 mmHg 47%
    17:00 +37°C° 0 mm 3 mps 744 mmHg 48%
    18:00 +35°C° 0 mm 3 mps 745 mmHg 53%
    19:00 +34°C° 0 mm 3 mps 746 mmHg 59%
    20:00 +33°C° 0 mm 4 mps 747 mmHg 64%
    21:00 +32°C° 0.7 mm 4 mps 747 mmHg 65%
    22:00 +32°C° 0.7 mm 4 mps 747 mmHg 66%
    23:00 +32°C° 0.7 mm 4 mps 747 mmHg 67%

    25 July, Thursday

    Time Temperature Precipitation Wind Pressure Humidity
    00:00 +30°C° 0 mm 3 mps 747 mmHg 69%
    01:00 +30°C° 0 mm 3 mps 746 mmHg 71%
    02:00 +29°C° 0 mm 3 mps 746 mmHg 72%
    03:00 +29°C° 0 mm 3 mps 746 mmHg 73%
    04:00 +29°C° 0 mm 2 mps 746 mmHg 73%
    05:00 +29°C° 0 mm 2 mps 746 mmHg 73%
    06:00 +30°C° 0 mm 3 mps 747 mmHg 68%
    07:00 +32°C° 0 mm 4 mps 747 mmHg 63%
    08:00 +33°C° 0 mm 5 mps 748 mmHg 59%
    09:00 +34°C° 0 mm 5 mps 748 mmHg 54%
    10:00 +35°C° 0 mm 5 mps 748 mmHg 50%
    11:00 +37°C° 0 mm 5 mps 748 mmHg 46%
    12:00 +37°C° 0 mm 5 mps 747 mmHg 45%
    13:00 +37°C° 0 mm 5 mps 746 mmHg 44%
    14:00 +38°C° 0 mm 4 mps 745 mmHg 43%
    15:00 +37°C° 0 mm 4 mps 745 mmHg 46%
    16:00 +37°C° 0 mm 4 mps 745 mmHg 48%
    17:00 +36°C° 0 mm 4 mps 745 mmHg 51%
    18:00 +35°C° 0.9 mm 3 mps 745 mmHg 57%
    19:00 +34°C° 0.9 mm 3 mps 746 mmHg 62%
    20:00 +31°C° 0.9 mm 2 mps 747 mmHg 68%
    21:00 +31°C° 0.7 mm 3 mps 747 mmHg 67%
    22:00 +31°C° 0.7 mm 3 mps 747 mmHg 67%
    23:00 +31°C° 0.7 mm 3 mps 747 mmHg 66%

    26 July, Friday

    Time Temperature Precipitation Wind Pressure Humidity
    00:00 +31°C° 0 mm 3 mps 747 mmHg 67%
    01:00 +30°C° 0 mm 3 mps 746 mmHg 69%
    02:00 +30°C° 0 mm 2 mps 746 mmHg 70%
    03:00 +30°C° 0 mm 2 mps 746 mmHg 70%
    04:00 +30°C° 0 mm 2 mps 746 mmHg 70%
    05:00 +29°C° 0 mm 2 mps 746 mmHg 69%
    06:00 +30°C° 0 mm 3 mps 747 mmHg 66%
    07:00 +30°C° 0 mm 3 mps 747 mmHg 63%
    08:00 +32°C° 0 mm 4 mps 748 mmHg 60%
    09:00 +32°C° 0 mm 4 mps 748 mmHg 60%
    10:00 +32°C° 0 mm 4 mps 748 mmHg 60%
    11:00 +32°C° 0 mm 4 mps 748 mmHg 59%
    12:00 +31°C° 0.3 mm 3 mps 747 mmHg 60%
    13:00 +31°C° 0.3 mm 3 mps 747 mmHg 60%
    14:00 +31°C° 0.3 mm 3 mps 746 mmHg 60%
    15:00 +31°C° 0.7 mm 3 mps 746 mmHg 61%
    16:00 +31°C° 0.7 mm 3 mps 746 mmHg 62%
    17:00 +31°C° 0.7 mm 3 mps 746 mmHg 64%
    18:00 +30°C° 0.6 mm 3 mps 747 mmHg 67%
    19:00 +30°C° 0.6 mm 4 mps 747 mmHg 70%
    20:00 +29°C° 0.6 mm 5 mps 748 mmHg 74%
    21:00 +29°C° 0 mm 4 mps 748 mmHg 75%
    22:00 +28°C° 0 mm 3 mps 748 mmHg 76%
    23:00 +28°C° 0 mm 3 mps 748 mmHg 78%

    27 July, Saturday

    Time Temperature Precipitation Wind Pressure Humidity
    00:00 +28°C° 0 mm 3 mps 748 mmHg 77%
    01:00 +28°C° 0 mm 3 mps 747 mmHg 77%
    02:00 +28°C° 0 mm 3 mps 747 mmHg 77%
    03:00 +28°C° 0 mm 3 mps 747 mmHg 76%
    04:00 +28°C° 0 mm 3 mps 747 mmHg 76%
    05:00 +28°C° 0 mm 3 mps 747 mmHg 75%
    06:00 +28°C° 0.1 mm 3 mps 748 mmHg 75%
    07:00 +28°C° 0.1 mm 3 mps 748 mmHg 75%
    08:00 +28°C° 0.1 mm 2 mps 748 mmHg 74%
    09:00 +29°C° 0 mm 3 mps 748 mmHg 72%
    10:00 +29°C° 0 mm 3 mps 748 mmHg 70%
    11:00 +29°C° 0 mm 3 mps 748 mmHg 67%
    12:00 +30°C° 0 mm 3 mps 748 mmHg 66%
    13:00 +30°C° 0 mm 3 mps 747 mmHg 65%
    14:00 +30°C° 0 mm 3 mps 747 mmHg 64%
    15:00 +30°C° 0 mm 3 mps 747 mmHg 65%
    16:00 +30°C° 0 mm 3 mps 746 mmHg 65%
    17:00 +30°C° 0 mm 3 mps 746 mmHg 66%
    18:00 +29°C° 0.4 mm 3 mps 747 mmHg 70%
    19:00 +29°C° 0.4 mm 2 mps 748 mmHg 75%
    20:00 +28°C° 0.4 mm 2 mps 748 mmHg 79%
    21:00 +27°C° 0.4 mm 2 mps 748 mmHg 81%
    22:00 +27°C° 0.4 mm 3 mps 748 mmHg 82%
    23:00 +27°C° 0.4 mm 3 mps 749 mmHg 84%
    Show more